CW9274 Weather Reports


time (UTC)temp
C
wind
direction
speed
KPH
gust
KPH
rain 1hr
cm
rain 24hr
cm
rain mn
cm
humidity
%
barometer
mb
20260906233904 12 144 3.2 8.0 0.00 0.18 0.18 90 1015.2
20260906232904 12 153 3.2 8.0 0.00 0.18 0.18 90 1015.2
20260906231904 12 137 3.2 8.0 0.00 0.20 0.18 92 1015.3
20260906231404 12 123 3.2 9.7 0.00 0.20 0.18 93 1015.3
20260906230903 12 157 3.2 8.0 0.00 0.20 0.18 93 1015.3
20260906230404 12 152 3.2 4.8 0.00 0.20 0.18 93 1015.3
20260906225903 12 139 4.8 8.0 0.00 0.23 0.18 93 1015.4
20260906225403 12 156 3.2 9.7 0.00 0.23 0.18 94 1015.4
20260906224903 12 159 3.2 11.3 0.00 0.23 0.18 95 1015.4
20260906224404 12 158 3.2 9.7 0.00 0.25 0.18 95 1015.5
20260906223903 12 163 3.2 4.8 0.00 0.25 0.18 96 1015.4
20260906223404 12 155 3.2 9.7 0.00 0.25 0.18 96 1015.5
20260906222903 12 143 3.2 9.7 0.00 0.25 0.18 96 1015.6
20260906222403 12 158 3.2 9.7 0.00 0.25 0.18 96 1015.6
20260906221404 12 151 3.2 9.7 0.00 0.28 0.18 97 1015.6
20260906220400 12 158 3.2 9.7 0.00 0.28 0.18 97 1015.6
20260906214900 12 155 3.2 8.0 0.00 0.30 0.18 98 1015.8
20260906213900 12 131 1.6 4.8 0.00 0.30 0.18 97 1015.8
20260906213359 12 126 3.2 8.0 0.03 0.30 0.18 98 1015.9
20260906212900 12 155 3.2 4.8 0.03 0.30 0.18 98 1015.7
20260906212400 12 130 1.6 4.8 0.03 0.33 0.18 98 1015.9
20260906211900 12 127 1.6 8.0 0.03 0.33 0.18 98 1015.8
20260906211400 11 140 3.2 8.0 0.03 0.33 0.18 98 1015.9
20260906210400 11 139 3.2 4.8 0.03 0.33 0.18 98 1016.0
20260906205900 11 146 3.2 4.8 0.03 0.33 0.18 98 1016.0
20260906205400 11 138 3.2 8.0 0.03 0.33 0.18 98 1016.1
20260906203901 11 149 3.2 9.7 0.03 0.33 0.18 98 1016.2
20260906203400 11 152 3.2 4.8 0.00 0.30 0.15 98 1016.2
20260906202900 11 128 4.8 9.7 0.00 0.30 0.15 98 1016.3
20260906201901 11 111 3.2 8.0 0.00 0.30 0.15 98 1016.4
20260906201400 11 130 3.2 4.8 0.00 0.33 0.15 98 1016.4
20260906200900 11 114 3.2 4.8 0.00 0.33 0.15 98 1016.5
20260906200400 10 56 1.6 4.8 0.00 0.33 0.15 98 1016.4
20260906195901 10 98 1.6 3.2 0.00 0.36 0.15 98 1016.5
20260906195400 10 80 1.6 4.8 0.00 0.36 0.15 98 1016.6
20260906194900 10 130 1.6 4.8 0.00 0.36 0.15 98 1016.6
20260906194400 10 71 1.6 4.8 0.00 0.36 0.15 98 1016.6
20260906193400 10 100 0.0 4.8 0.00 0.38 0.15 98 1016.6
20260906192900 10 65 1.6 4.8 0.00 0.41 0.15 98 1016.8
20260906192401 10 70 1.6 4.8 0.00 0.41 0.15 98 1016.8
20260906191900 10 138 0.0 3.2 0.00 0.43 0.15 98 1016.7
20260906191401 10 138 1.6 4.8 0.03 0.43 0.15 98 1016.7
20260906190401 10 67 1.6 4.8 0.03 0.43 0.15 98 1016.8
20260906185900 10 56 1.6 4.8 0.03 0.46 0.15 98 1016.8
20260906185400 10 76 3.2 4.8 0.03 0.46 0.15 98 1016.9
20260906184901 10 112 3.2 4.8 0.03 0.46 0.15 98 1016.9
20260906184400 10 75 1.6 4.8 0.03 0.46 0.15 98 1016.9
20260906183900 10 52 3.2 4.8 0.05 0.48 0.15 98 1016.9
20260906183400 9 40 1.6 4.8 0.05 0.48 0.15 98 1017.0
20260906182900 9 43 1.6 3.2 0.05 0.51 0.15 98 1017.0
20260906182400 9 48 0.0 0.0 0.08 0.53 0.15 98 1017.1
20260906181900 9 48 0.0 0.0 0.08 0.53 0.15 98 1017.2
20260906181400 9 48 0.0 1.6 0.05 0.51 0.13 98 1017.2
20260906180901 9 48 1.6 3.2 0.05 0.53 0.13 98 1017.2
20260906180401 9 48 0.0 1.6 0.05 0.56 0.13 98 1017.2
20260906175900 9 48 1.6 4.8 0.05 0.56 0.13 98 1017.2
20260906175400 9 84 0.0 3.2 0.05 0.56 0.13 98 1017.4
20260906174400 8 69 1.6 4.8 0.05 0.58 0.13 98 1017.5
20260906173901 8 47 1.6 4.8 0.03 0.56 0.10 98 1017.4
20260906173401 8 36 1.6 4.8 0.03 0.56 0.10 98 1017.5
20260906172900 8 92 0.0 3.2 0.03 0.56 0.10 98 1017.5
20260906172400 8 123 1.6 3.2 0.00 0.53 0.08 98 1017.7
20260906171900 8 82 1.6 3.2 0.00 0.53 0.08 98 1017.6
20260906171401 8 82 1.6 3.2 0.03 0.56 0.08 98 1017.6
20260906170900 8 141 1.6 4.8 0.03 0.56 0.08 98 1017.7
20260906165901 8 117 1.6 3.2 0.03 0.56 0.08 98 1017.8
20260906165401 8 72 1.6 4.8 0.03 0.56 0.08 98 1017.9
20260906164901 8 28 0.0 3.2 0.03 0.56 0.08 98 1017.9
20260906164401 8 28 0.0 0.0 0.03 0.56 0.08 98 1018.0
20260906163900 8 28 0.0 0.0 0.03 0.56 0.08 98 1018.1
20260906163401 8 28 0.0 1.6 0.03 0.56 0.08 98 1018.1
20260906162900 8 28 0.0 1.6 0.03 0.56 0.08 98 1018.2
20260906162400 8 28 0.0 1.6 0.03 0.56 0.08 98 1018.2
20260906161400 8 28 0.0 3.2 0.00 0.53 0.05 98 1018.4
20260906160401 8 268 0.0 1.6 0.00 0.53 0.05 98 1018.4
20260906155900 8 268 0.0 0.0 0.00 0.53 0.05 98 1018.4
20260906154901 8 268 0.0 1.6 0.00 0.56 0.05 98 1018.5
20260906154401 8 268 0.0 0.0 0.00 0.56 0.05 98 1018.5
20260906153901 8 268 0.0 0.0 0.00 0.56 0.05 98 1018.5
20260906153401 7 268 0.0 0.0 0.00 0.56 0.05 98 1018.4
20260906152901 7 268 0.0 0.0 0.00 0.56 0.05 98 1018.4
20260906151900 7 268 0.0 0.0 0.00 0.58 0.05 98 1018.4
20260906151401 7 268 0.0 1.6 0.00 0.58 0.05 98 1018.4
20260906150901 7 268 1.6 4.8 0.00 0.58 0.05 98 1018.4
20260906145901 7 279 1.6 3.2 0.00 0.58 0.05 98 1018.3
20260906144901 7 278 3.2 4.8 0.00 0.58 0.05 98 1018.2
20260906143401 7 263 0.0 1.6 0.00 0.58 0.05 98 1018.5
20260906142901 7 263 0.0 1.6 0.00 0.58 0.05 98 1018.5
20260906142401 7 263 0.0 1.6 0.00 0.58 0.05 98 1018.5
20260906141901 7 263 0.0 1.6 0.00 0.58 0.05 98 1018.4
20260906141401 7 263 0.0 0.0 0.00 0.58 0.05 98 1018.4
20260906140901 7 263 0.0 0.0 0.00 0.58 0.05 98 1018.5
20260906140401 7 263 0.0 1.6 0.00 0.58 0.05 98 1018.5
20260906135901 7 263 1.6 3.2 0.00 0.58 0.05 98 1018.5
20260906134901 7 266 3.2 4.8 0.00 0.58 0.05 98 1018.5
20260906134401 7 254 3.2 4.8 0.00 0.58 0.05 98 1018.7
20260906133901 7 254 3.2 4.8 0.00 0.58 0.05 98 1018.6
20260906133401 7 256 3.2 4.8 0.00 0.58 0.05 98 1018.7
20260906132901 7 288 3.2 4.8 0.00 0.58 0.05 98 1018.6
20260906132401 7 288 3.2 4.8 0.00 0.58 0.05 98 1018.7
20260906131402 7 288 0.0 0.0 0.00 0.58 0.05 98 1018.8
20260906130901 7 288 0.0 0.0 0.00 0.58 0.05 98 1018.8
20260906130402 7 288 0.0 0.0 0.00 0.58 0.05 98 1019.0
20260906125901 7 288 0.0 0.0 0.00 0.58 0.05 98 1019.1
20260906125401 7 288 0.0 0.0 0.03 0.58 0.05 98 1019.2
20260906124901 7 288 0.0 0.0 0.03 0.58 0.05 98 1019.1
20260906124401 7 288 0.0 0.0 0.03 0.58 0.05 98 1019.0
20260906122901 7 288 0.0 0.0 0.03 0.58 0.05 97 1019.1
20260906122402 7 288 0.0 0.0 0.03 0.58 0.05 97 1019.2
20260906121901 7 288 0.0 0.0 0.03 0.58 0.05 97 1019.2
20260906121401 7 288 0.0 0.0 0.03 0.58 0.05 97 1019.2
20260906120402 7 288 0.0 0.0 0.03 0.58 0.05 98 1019.2
20260906115901 7 288 0.0 0.0 0.03 0.58 0.05 98 1019.2
20260906115402 7 288 0.0 0.0 0.00 0.56 0.03 98 1019.5
20260906114901 7 288 0.0 0.0 0.00 0.56 0.03 98 1019.7
20260906114401 7 288 0.0 0.0 0.00 0.56 0.03 98 1019.9
20260906113902 7 288 0.0 0.0 0.00 0.56 0.03 98 1020.0
20260906113402 7 288 0.0 0.0 0.00 0.56 0.03 98 1020.1
20260906111901 7 288 0.0 0.0 0.00 0.56 0.03 98 1020.2
20260906111401 7 288 0.0 0.0 0.00 0.56 0.03 98 1020.1
20260906110901 7 288 0.0 0.0 0.00 0.56 0.03 98 1020.1
20260906110402 7 288 0.0 0.0 0.00 0.56 0.03 98 1020.3
20260906105901 7 288 0.0 0.0 0.00 0.56 0.03 98 1020.3
20260906105401 7 288 0.0 0.0 0.00 0.56 0.03 98 1020.3
20260906104902 7 288 0.0 0.0 0.00 0.56 0.03 98 1020.3
20260906104402 7 288 0.0 0.0 0.00 0.56 0.03 98 1020.4
20260906103901 7 288 0.0 0.0 0.00 0.56 0.03 98 1020.5
20260906103402 7 288 0.0 0.0 0.00 0.56 0.03 98 1020.5
20260906102401 7 288 0.0 0.0 0.00 0.56 0.03 97 1020.4
20260906101902 7 288 0.0 0.0 0.00 0.56 0.03 97 1020.4
20260906100402 7 288 0.0 0.0 0.00 0.56 0.03 98 1019.9
20260906095901 7 288 0.0 0.0 0.00 0.56 0.03 98 1020.1
20260906095402 7 288 0.0 0.0 0.00 0.56 0.03 98 1020.2
20260906094902 7 288 0.0 0.0 0.00 0.56 0.03 98 1020.1
20260906094401 7 288 0.0 0.0 0.00 0.56 0.03 98 1019.9
20260906093902 7 288 0.0 0.0 0.00 0.56 0.03 98 1019.9
20260906093402 7 288 0.0 0.0 0.00 0.56 0.03 98 1020.2
20260906092901 7 288 0.0 0.0 0.00 0.56 0.03 98 1020.2
20260906091902 7 288 0.0 0.0 0.00 0.56 0.03 97 1020.6
20260906090401 7 288 0.0 0.0 0.00 0.56 0.03 97 1020.5
20260906085901 7 288 0.0 0.0 0.00 0.56 0.03 97 1020.5
20260906085402 7 288 0.0 0.0 0.00 0.56 0.03 97 1020.5
20260906084402 7 288 0.0 0.0 0.00 0.56 0.03 97 1020.5
20260906083901 7 288 0.0 1.6 0.00 0.56 0.03 97 1020.6
20260906083402 7 288 0.0 0.0 0.00 0.56 0.03 97 1020.8
20260906082902 7 288 0.0 3.2 0.00 0.56 0.03 97 1020.8
20260906082401 7 290 1.6 4.8 0.00 0.56 0.03 97 1020.9
20260906081902 7 291 1.6 4.8 0.00 0.56 0.03 97 1021.0
20260906081402 7 269 3.2 4.8 0.00 0.56 0.03 97 1021.1
20260906080902 7 285 0.0 3.2 0.00 0.56 0.03 97 1021.2
20260906080402 7 285 1.6 3.2 0.03 0.56 0.03 97 1021.2
20260906075902 7 285 3.2 4.8 0.03 0.56 0.03 97 1021.1
20260906075402 7 170 1.6 3.2 0.03 0.56 0.03 97 1021.2
20260906074902 7 170 0.0 0.0 0.03 0.56 0.03 97 1021.3
20260906074402 7 170 0.0 0.0 0.03 0.56 0.03 97 1021.3
20260906073402 7 170 0.0 0.0 0.03 0.56 0.03 97 1021.0
20260906072902 7 170 0.0 1.6 0.03 0.56 0.03 97 1021.2
20260906072402 7 170 0.0 4.8 0.03 0.56 0.03 97 1021.2
20260906071902 7 170 1.6 3.2 0.03 0.56 0.03 97 1021.2
20260906071402 7 170 1.6 3.2 0.03 0.56 0.03 97 1021.2
20260906070902 7 170 0.0 0.0 0.03 0.56 0.03 97 1021.0
20260906070402 7 170 0.0 0.0 0.00 0.53 0.00 97 1021.0
20260906065902 7 170 0.0 0.0 0.00 0.53 0.00 97 1021.1
20260906065402 7 170 0.0 0.0 0.00 0.53 0.00 97 1021.1
20260906064902 7 170 0.0 1.6 0.00 0.53 0.00 97 1021.2
20260906063902 7 170 0.0 0.0 0.00 0.53 0.00 97 1021.3
20260906063402 7 170 0.0 0.0 0.00 0.53 0.00 97 1021.2
20260906062903 7 170 0.0 0.0 0.00 0.53 0.00 97 1021.1
20260906062402 7 170 0.0 1.6 0.00 0.53 0.00 97 1021.1
20260906061903 7 170 0.0 1.6 0.00 0.53 0.00 97 1021.3
20260906061403 7 170 1.6 3.2 0.00 0.53 0.00 97 1021.3
20260906060902 7 170 0.0 1.6 0.00 0.53 0.00 97 1021.3
20260906060402 7 170 0.0 3.2 0.00 0.53 0.00 97 1021.3
20260906055903 7 170 3.2 4.8 0.00 0.53 0.53 97 1021.4
20260906055403 7 292 0.0 0.0 0.00 0.53 0.53 97 1021.4
20260906054902 7 292 1.6 3.2 0.00 0.53 0.53 97 1021.4
20260906054402 8 292 1.6 4.8 0.00 0.53 0.53 97 1021.3
20260906053902 8 286 1.6 4.8 0.00 0.53 0.53 97 1021.3
20260906053402 8 279 3.2 4.8 0.00 0.53 0.53 97 1021.2
20260906052903 8 285 3.2 9.7 0.00 0.53 0.53 97 1021.2
20260906052402 8 285 4.8 11.3 0.00 0.53 0.53 97 1021.3
20260906051403 8 265 8.0 11.3 0.00 0.53 0.53 97 1021.3
20260906050903 8 270 4.8 11.3 0.00 0.53 0.53 97 1021.3
20260906050403 8 267 8.0 12.9 0.00 0.53 0.53 97 1021.4
20260906045903 8 263 4.8 9.7 0.00 0.53 0.53 97 1021.5
20260906045403 8 272 3.2 9.7 0.00 0.53 0.53 97 1021.5
20260906044902 8 283 4.8 9.7 0.00 0.53 0.53 97 1021.5
20260906044402 8 275 4.8 4.8 0.00 0.53 0.53 97 1021.5
20260906043903 8 238 4.8 4.8 0.00 0.53 0.53 97 1021.6
20260906042902 8 238 3.2 4.8 0.00 0.53 0.53 97 1021.6
20260906042403 8 237 3.2 4.8 0.00 0.53 0.53 97 1021.6
20260906041902 8 236 1.6 3.2 0.00 0.53 0.53 97 1021.7
20260906041402 8 236 1.6 4.8 0.00 0.53 0.53 97 1021.7
20260906040902 8 237 1.6 3.2 0.00 0.53 0.53 97 1021.7
20260906040403 8 227 3.2 4.8 0.00 0.53 0.53 97 1021.7
20260906035903 8 210 1.6 4.8 0.00 0.53 0.53 97 1021.7
20260906035402 8 216 3.2 4.8 0.00 0.53 0.53 97 1021.7
20260906034903 8 210 3.2 4.8 0.00 0.53 0.53 97 1021.6
20260906034403 8 225 1.6 4.8 0.00 0.53 0.53 97 1021.5
20260906033903 8 225 0.0 0.0 0.00 0.53 0.53 97 1021.5
20260906033403 8 225 0.0 3.2 0.00 0.53 0.53 97 1021.2
20260906032902 8 225 1.6 4.8 0.00 0.53 0.53 97 1021.1
20260906032402 7 326 1.6 4.8 0.00 0.53 0.53 96 1021.0
20260906031403 8 351 0.0 3.2 0.00 0.53 0.53 96 1020.8
20260906030903 8 34 1.6 4.8 0.00 0.53 0.53 96 1020.7
20260906025902 8 326 1.6 4.8 0.00 0.53 0.53 96 1020.5
20260906025403 8 343 4.8 8.0 0.00 0.53 0.53 96 1020.4
20260906024903 8 0 4.8 11.3 0.00 0.53 0.53 96 1020.4
20260906023903 8 350 3.2 4.8 0.00 0.53 0.53 96 1020.3
20260906023403 8 353 4.8 8.0 0.00 0.53 0.53 96 1020.3
20260906022903 8 356 3.2 4.8 0.00 0.53 0.53 96 1020.3
20260906021403 8 349 1.6 4.8 0.00 0.53 0.53 96 1020.3
20260906020904 8 349 1.6 4.8 0.00 0.53 0.53 96 1020.5
20260906020404 8 349 0.0 4.8 0.00 0.53 0.53 96 1020.4
20260906015903 8 349 0.0 4.8 0.00 0.53 0.53 96 1020.3
20260906015403 8 349 3.2 4.8 0.00 0.53 0.53 96 1020.3
20260906014903 8 343 3.2 4.8 0.00 0.53 0.53 96 1020.3
20260906014403 8 346 1.6 3.2 0.00 0.53 0.53 96 1020.3
20260906013903 8 346 1.6 4.8 0.00 0.53 0.53 96 1020.3
20260906013404 8 350 3.2 4.8 0.00 0.53 0.53 96 1020.3
20260906012903 8 11 1.6 3.2 0.00 0.53 0.53 96 1020.3
20260906012403 8 11 3.2 4.8 0.00 0.53 0.53 96 1020.3
20260906011903 8 355 3.2 4.8 0.00 0.53 0.53 96 1020.4
20260906010904 8 5 1.6 4.8 0.00 0.53 0.53 96 1020.5
20260906010403 8 341 0.0 0.0 0.00 0.53 0.53 96 1020.4
20260906005903 8 341 0.0 0.0 0.00 0.53 0.53 96 1020.4
20260906005403 8 341 0.0 4.8 0.00 0.53 0.53 96 1020.4
20260906004903 8 341 1.6 4.8 0.00 0.53 0.53 96 1020.2
20260906004404 8 9 1.6 4.8 0.00 0.53 0.53 96 1020.2
20260906003403 8 330 1.6 4.8 0.00 0.53 0.53 96 1020.2
20260906002903 8 348 3.2 4.8 0.00 0.53 0.53 96 1020.3
20260906002403 8 338 0.0 4.8 0.00 0.53 0.53 96 1020.3
20260906001404 8 342 1.6 4.8 0.03 0.53 0.53 96 1020.2
20260906000904 9 325 1.6 4.8 0.03 0.53 0.53 96 1020.1
20260906000403 9 310 1.6 4.8 0.03 0.53 0.53 96 1020.2
20260905235903 9 355 3.2 4.8 0.05 0.53 0.53 96 1020.1
20260905235403 9 338 3.2 8.0 0.05 0.53 0.53 96 1020.1